Inquirer Daily News

Weather

Get conditions and forecasts for any City, State, ZIP code or Country:  
Trenton, NJ
on Monday, December 17, 2012

Monday
Previous Day Next Day
Daily Summary
 ActualAverageRecord
Temperature
Mean Temperature °F 35°F  
Max Temperature 46°F 42°F 66°F (2000)
Min Temperature 41°F 27°F 2°F (1919)
Degree Days
Heating Degree Days 21 30  
Month to date heating degree days 362 469  
Since 1 July heating degree days 1369 1445  
Cooling Degree Days 0 0  
Month to date cooling degree days 0 0  
Year to date cooling degree days 1234 965  
Moisture
Dew Point 42°F   
Average Humidity 95    
Maximum Humidity 100    
Minimum Humidity 89    
Precipitation
Precipitation 0.09 in 0.11 in 0.86 in (2000)
Month to date precipitation 1.09 2.28  
Year to date precipitation 34.32 45.02  
Wind
Wind Speed 7 mph   
Max Wind Speed 10 mph   
Max Gust Speed 16 mph   
Visibility 3 miles   
Events Rain   

Key: T is trace of precipitation, MM is missing value
Source: NWS Daily Summary
Time(EST)TemperatureDew PointHumidity Pressure Visibility Wind DirectionWind SpeedGust SpeedPrecipitationEvents Conditions
12:53 AM 44.1°F 43.0°F 96% 29.87 in 7.0 miles NNE 3.5 mph - 0.01 in Rain Light Rain
1:53 AM 44.1°F 42.1°F 93% 29.86 in 5.0 miles NE 4.6 mph - 0.01 in   Overcast
2:08 AM 44.6°F 42.8°F 93% 29.88 in 3.0 miles NNE 3.5 mph - N/A   Overcast
2:41 AM 42.8°F 42.8°F 100% 29.87 in 2.5 miles ENE 6.9 mph - N/A   Overcast
2:50 AM 42.8°F 42.8°F 100% 29.86 in 3.0 miles East 6.9 mph - N/A   Overcast
2:53 AM 43.0°F 42.1°F 97% 29.84 in 3.0 miles East 6.9 mph - N/A   Overcast
3:53 AM 44.1°F 42.1°F 93% 29.85 in 5.0 miles ENE 8.1 mph - N/A   Overcast
4:41 AM 42.8°F 42.8°F 100% 29.86 in 2.0 miles ENE 6.9 mph - N/A   Overcast
4:53 AM 43.0°F 41.0°F 93% 29.84 in 2.5 miles NE 6.9 mph - N/A   Overcast
5:18 AM 42.8°F 41.0°F 93% 29.87 in 3.0 miles ENE 9.2 mph - N/A   Overcast
5:53 AM 42.1°F 39.9°F 92% 29.85 in 3.0 miles ENE 6.9 mph - N/A   Overcast
6:53 AM 42.1°F 39.9°F 92% 29.86 in 4.0 miles ENE 9.2 mph - N/A   Overcast
7:53 AM 41.0°F 39.0°F 93% 29.85 in 4.0 miles ENE 9.2 mph - N/A   Overcast
8:36 AM 41.0°F 39.2°F 93% 29.87 in 2.5 miles NE 6.9 mph - N/A   Overcast
8:53 AM 41.0°F 39.0°F 93% 29.86 in 2.5 miles ENE 9.2 mph - 0.01 in   Overcast
9:53 AM 42.1°F 41.0°F 96% 29.87 in 2.0 miles ENE 4.6 mph - N/A   Overcast
10:07 AM 42.8°F 41.0°F 93% 29.87 in 1.8 miles East 6.9 mph - N/A   Overcast
10:14 AM 42.8°F 41.0°F 93% 29.87 in 2.0 miles ENE 6.9 mph - N/A   Overcast
10:35 AM 42.8°F 41.0°F 93% 29.88 in 4.0 miles NE 5.8 mph - N/A   Overcast
10:53 AM 43.0°F 41.0°F 93% 29.86 in 3.0 miles ENE 6.9 mph - N/A   Overcast
11:14 AM 42.8°F 41.0°F 93% 29.88 in 2.5 miles NE 4.6 mph - N/A   Overcast
11:30 AM 42.8°F 41.0°F 93% 29.88 in 3.0 miles NE 4.6 mph - N/A   Overcast
11:42 AM 42.8°F 41.0°F 93% 29.87 in 2.5 miles ENE 6.9 mph - N/A   Overcast
11:53 AM 43.0°F 41.0°F 93% 29.85 in 2.0 miles NE 5.8 mph - N/A   Overcast
12:23 PM 42.8°F 41.0°F 93% 29.86 in 3.0 miles ENE 5.8 mph - N/A   Overcast
12:34 PM 42.8°F 41.0°F 93% 29.85 in 2.5 miles ENE 5.8 mph - N/A   Overcast
12:53 PM 43.0°F 42.1°F 97% 29.82 in 2.5 miles ENE 9.2 mph - N/A   Overcast
2:10 PM 44.6°F 42.8°F 93% 29.80 in 2.5 miles East 6.9 mph - N/A   Mist
2:31 PM 44.6°F 42.8°F 93% 29.78 in 2.5 miles East 9.2 mph - N/A   Overcast
2:53 PM 44.1°F 42.1°F 93% 29.76 in 2.5 miles East 8.1 mph - N/A   Overcast
3:02 PM 44.6°F 42.8°F 93% 29.78 in 3.0 miles East 8.1 mph - N/A   Overcast
3:49 PM 44.6°F 42.8°F 93% 29.79 in 2.5 miles East 6.9 mph - N/A   Overcast
3:53 PM 44.1°F 42.1°F 93% 29.77 in 2.5 miles East 9.2 mph - N/A   Overcast
4:23 PM 44.6°F 42.8°F 93% 29.78 in 1.8 miles East 4.6 mph - N/A   Overcast
4:33 PM 44.6°F 42.8°F 93% 29.78 in 2.5 miles East 5.8 mph - N/A   Overcast
4:53 PM 44.1°F 42.1°F 93% 29.77 in 2.0 miles East 6.9 mph - N/A   Overcast
7:53 PM 43.0°F 42.1°F 97% 29.70 in 1.2 miles East 8.1 mph - 0.00 in   Overcast
8:53 PM 44.1°F 43.0°F 96% 29.67 in 1.8 miles East 9.2 mph - 0.01 in   Overcast
9:08 PM 44.6°F 42.8°F 93% 29.69 in 2.0 miles East 9.2 mph - N/A   Overcast
9:43 PM 44.6°F 42.8°F 93% 29.66 in 1.8 miles East 6.9 mph - N/A   Overcast
9:53 PM 44.1°F 44.1°F 100% 29.66 in 1.5 miles East 6.9 mph - N/A   Overcast
10:22 PM 44.6°F 44.6°F 100% 29.65 in 2.5 miles East 5.8 mph - 0.01 in Rain Light Rain
10:42 PM 44.6°F 44.6°F 100% 29.63 in 1.8 miles ESE 5.8 mph - 0.02 in Rain Light Rain
10:53 PM 45.0°F 44.1°F 97% 29.62 in 2.0 miles ESE 5.8 mph - 0.03 in Rain Light Rain
11:50 PM 44.6°F 44.6°F 100% 29.60 in 4.0 miles ESE 4.6 mph - 0.02 in Rain Light Rain
11:53 PM 45.0°F 45.0°F 100% 29.58 in 4.0 miles East 3.5 mph - 0.02 in Rain Light Rain
Astronomy
Sunrise:07:16 AM (EST) Moon Rise:10:23 AM (EST)12/17
Sunset:04:34 PM (EST) Moon Set:09:54 PM (EST)12/17
Moon Phase
Dec. 17 Dec. 20 Dec. 28 Jan. 04 Jan. 11

Copyright © 2014 The Weather Underground, Inc.